This is the latest recevied weather packets stored in our database for station/object ZL1CTS-13. If no packets are shown the sender has not sent any weather packets the latest 10 day(s).
| Time | Temp. | Humidity | Pressure | Rain* | Wind** | Luminosity | Snow |
|---|---|---|---|---|---|---|---|
| 1788040504 | 17.22° C | 80% | 995.4 hPa | 0 mm | - | - | - |
| 1788040204 | 16.67° C | 84% | 995.5 hPa | 0 mm | - | - | - |
| 1788039917 | 16.11° C | 87% | 995.7 hPa | 0 mm | - | - | - |
| 1788039604 | 15.56° C | 91% | 995.6 hPa | 0 mm | - | - | - |
| 1788039304 | 15° C | 94% | 995.7 hPa | 0 mm | - | - | - |
| 1788039004 | 15° C | 97% | 995.7 hPa | 0 mm | - | - | - |
| 1788038704 | 13.33° C | 99% | 995.7 hPa | 0 mm | - | - | - |
| 1788038404 | 13.33° C | 99% | 995.8 hPa | 0 mm | - | - | - |
| 1788038103 | 13.33° C | 99% | 995.8 hPa | 0 mm | - | - | - |
| 1788037803 | 13.89° C | 99% | 995.9 hPa | 0 mm | - | - | - |
| 1788037504 | 13.89° C | 99% | 996.1 hPa | 0 mm | - | - | - |
| 1788037204 | 13.33° C | 99% | 996 hPa | 0 mm | - | - | - |
| 1788036904 | 12.78° C | 97% | 996 hPa | 0 mm | - | - | - |
| 1788036604 | 12.22° C | 97% | 996 hPa | 0 mm | - | - | - |
| 1788036304 | 11.67° C | 98% | 996.1 hPa | 0 mm | - | - | - |
| 1788036004 | 11.67° C | 98% | 996.2 hPa | 0 mm | - | - | - |
| 1788035705 | 11.11° C | 98% | 996.1 hPa | 0 mm | - | - | - |
| 1788035404 | 11.11° C | 99% | 996 hPa | 0 mm | - | - | - |
| 1788035104 | 10.56° C | 99% | 996 hPa | 0 mm | - | - | - |
| 1788034804 | 9.44° C | 99% | 996 hPa | 0 mm | - | - | - |
| 1788034513 | 9.44° C | 99% | 995.9 hPa | 0 mm | - | - | - |
| 1788034204 | 8.89° C | 99% | 995.7 hPa | 0 mm | - | - | - |
| 1788033906 | 8.89° C | 99% | 995.7 hPa | 0 mm | - | - | - |
| 1788033604 | 8.33° C | 99% | 995.7 hPa | 0 mm | - | - | - |
| 1788033306 | 8.33° C | 99% | 995.7 hPa | 0 mm | - | - | - |
* Rain latest hour (hover to see other rain measurements)
** Current wind speed in m/s (hover to see current wind gust speed)